EW2964 Weather Reports


Display with metric or nautical units.
time (UTC)temp
F
wind
direction
speed
MPH
gust
MPH
rain 1hr
in
rain 24hr
in
rain mn
in
humidity
%
barometer
mb
20260904022403 72 314 2.0 3.0 0.00 0.00 0.00 93 1019.1
20260904021903 72 301 1.0 2.0 0.00 0.00 0.00 93 1019.2
20260904021530 72 294 0.0 2.0 0.00 0.00 0.00 94 1020.0
20260904020903 72 261 1.0 2.0 0.00 0.00 0.00 93 1019.2
20260904020027 72 261 0.0 3.0 0.00 0.00 0.00 94 1019.8
20260904015903 72 261 0.0 3.0 0.00 0.00 0.00 93 1019.2
20260904014904 73 262 1.0 3.0 0.00 0.00 0.00 92 1019.1
20260904014528 72 302 0.0 3.0 0.00 0.00 0.00 94 1019.9
20260904014403 73 302 1.0 2.0 0.00 0.00 0.00 92 1019.2
20260904013903 73 302 1.0 3.0 0.00 0.00 0.00 92 1018.9
20260904013403 73 302 1.0 3.0 0.00 0.00 0.00 92 1018.9
20260904013031 73 302 1.0 3.0 0.00 0.00 0.00 93 1019.6
20260904012903 73 302 1.0 3.0 0.00 0.00 0.00 91 1018.8
20260904012403 73 302 1.0 3.0 0.00 0.00 0.00 91 1018.6
20260904011903 74 302 2.0 3.0 0.00 0.00 0.00 91 1018.5
20260904011514 73 302 2.0 3.0 0.00 0.00 0.00 92 1019.4
20260904010903 74 302 1.0 2.0 0.00 0.00 0.00 90 1018.5
20260904010021 74 302 1.0 3.0 0.00 0.00 0.00 90 1019.4
20260904005903 75 302 1.0 3.0 0.00 0.00 0.00 89 1018.5
20260904005403 75 302 2.0 3.0 0.00 0.00 0.00 88 1018.4
20260904004903 75 302 2.0 5.0 0.00 0.00 0.00 87 1018.4
20260904004529 75 263 2.0 7.0 0.00 0.00 0.00 89 1019.3
20260904004403 75 259 2.0 7.0 0.00 0.00 0.00 87 1018.5
20260904003404 76 296 1.0 3.0 0.00 0.00 0.00 87 1018.5
20260904003031 75 298 0.0 3.0 0.00 0.00 0.00 89 1019.3
20260904002404 76 259 1.0 3.0 0.00 0.00 0.00 87 1018.6
20260904001903 76 272 1.0 3.0 0.00 0.00 0.00 87 1018.6
20260904001537 76 290 1.0 4.0 0.00 0.00 0.00 88 1019.2
20260904001404 76 301 2.0 5.0 0.00 0.00 0.00 86 1018.6
20260904000903 77 313 2.0 5.0 0.00 0.00 0.00 85 1018.6
20260904000403 77 306 2.0 5.0 0.00 0.00 0.00 85 1018.7
20260904000019 77 304 2.0 5.0 0.00 0.00 0.00 86 1019.4
20260903235903 77 272 3.0 5.0 0.00 0.00 0.00 85 1018.7
20260903235403 77 284 4.0 6.0 0.00 0.00 0.00 84 1018.7
20260903234903 78 303 3.0 3.0 0.00 0.00 0.00 84 1018.6
20260903234524 77 295 2.0 4.0 0.00 0.00 0.00 85 1019.3
20260903234403 78 290 3.0 5.0 0.00 0.00 0.00 83 1018.7
20260903233904 78 284 3.0 5.0 0.00 0.00 0.00 83 1018.6
20260903233403 79 298 2.0 3.0 0.00 0.00 0.00 82 1018.6
20260903233033 79 270 1.0 3.0 0.00 0.00 0.00 83 1019.2
20260903232903 80 281 2.0 3.0 0.00 0.00 0.00 80 1018.7
20260903232403 80 316 3.0 3.0 0.00 0.00 0.00 80 1018.5
20260903231903 81 290 2.0 3.0 0.00 0.00 0.00 78 1018.4
20260903231531 81 279 0.0 4.0 0.00 0.00 0.00 79 1019.1
20260903231403 81 270 2.0 5.0 0.00 0.00 0.00 77 1018.4
20260903230403 83 328 3.0 5.0 0.00 0.00 0.00 75 1018.2
20260903230031 82 269 3.0 6.0 0.00 0.00 0.00 75 1018.9
20260903225903 83 264 4.0 6.0 0.00 0.00 0.00 73 1018.1
20260903224518 83 308 2.0 7.0 0.00 0.00 0.00 74 1018.8
20260903224404 84 304 4.0 7.0 0.00 0.00 0.00 72 1018.1
20260903223403 85 314 6.0 7.0 0.00 0.00 0.00 68 1017.6
20260903223027 86 294 3.0 5.0 0.00 0.00 0.00 68 1018.5
20260903222903 86 315 4.0 6.0 0.00 0.00 0.00 66 1017.7
20260903221904 87 296 3.0 5.0 0.00 0.00 0.00 64 1017.3
20260903221543 87 294 2.0 7.0 0.00 0.00 0.00 64 1018.2
20260903221403 87 310 3.0 6.0 0.00 0.00 0.00 62 1017.5
20260903220904 88 320 5.0 7.0 0.00 0.00 0.00 60 1017.3
20260903220403 89 324 3.0 6.0 0.00 0.00 0.00 60 1017.1
20260903220033 88 271 3.0 7.0 0.00 0.00 0.00 60 1017.9
20260903215903 89 333 4.0 6.0 0.00 0.00 0.00 60 1017.0
20260903214533 88 306 1.0 10.0 0.00 0.00 0.00 62 1017.9
20260903214403 89 231 4.0 10.0 0.00 0.00 0.00 60 1017.0
20260903213903 89 249 4.0 7.0 0.00 0.00 0.00 59 1016.9
20260903213403 88 297 2.0 5.0 0.00 0.00 0.00 61 1017.1
20260903213019 88 309 2.0 4.0 0.00 0.00 0.00 60 1018.0
20260903212903 88 311 1.0 5.0 0.00 0.00 0.00 60 1017.3
20260903212403 88 303 2.0 5.0 0.00 0.00 0.00 61 1017.2
20260903211903 88 315 1.0 5.0 0.00 0.00 0.00 63 1017.3
20260903211505 87 334 2.0 6.0 0.00 0.00 0.00 62 1018.0
20260903211403 87 338 5.0 6.0 0.00 0.00 0.00 61 1017.2
20260903210904 87 312 3.0 7.0 0.00 0.00 0.00 62 1017.4
20260903210011 86 323 3.0 9.0 0.00 0.00 0.00 68 1018.4
20260903205903 86 314 5.0 7.0 0.00 0.00 0.00 64 1017.7
20260903205403 86 320 5.0 9.0 0.00 0.00 0.00 65 1017.8
20260903204903 86 317 5.0 6.0 0.00 0.00 0.00 66 1017.9
20260903204512 86 333 2.0 4.0 0.00 0.00 0.00 69 1018.6
20260903204404 86 321 4.0 5.0 0.00 0.00 0.00 66 1017.9
20260903203903 86 313 3.0 6.0 0.00 0.00 0.00 63 1017.9
20260903203404 86 296 3.0 8.0 0.00 0.00 0.00 59 1018.0
20260903203020 86 311 2.0 9.0 0.00 0.00 0.00 61 1019.0
20260903202903 87 300 4.0 6.0 0.00 0.00 0.00 60 1018.1
20260903202403 88 319 5.0 9.0 0.00 0.00 0.00 58 1018.1
20260903201903 89 295 4.0 8.0 0.00 0.00 0.00 57 1018.1
20260903201518 88 262 3.0 7.0 0.00 0.00 0.00 61 1019.1
20260903201403 89 292 3.0 7.0 0.00 0.00 0.00 59 1018.2
20260903200903 88 331 2.0 6.0 0.00 0.00 0.00 60 1018.2
20260903200403 88 310 5.0 8.0 0.00 0.00 0.00 60 1018.5
20260903200015 88 296 2.0 8.0 0.00 0.00 0.00 61 1019.3
20260903195903 88 268 5.0 8.0 0.00 0.00 0.00 59 1018.6
20260903195404 88 327 5.0 7.0 0.00 0.00 0.00 60 1018.6
20260903194903 88 273 6.0 12.0 0.00 0.00 0.00 59 1018.6
20260903194522 88 296 5.0 11.0 0.00 0.00 0.00 59 1019.5
20260903194403 88 277 4.0 7.0 0.00 0.00 0.00 60 1018.6
20260903193903 88 340 2.0 6.0 0.00 0.00 0.00 62 1018.7
20260903193403 87 332 5.0 8.0 0.00 0.00 0.00 60 1018.7
20260903193018 87 309 3.0 9.0 0.00 0.00 0.00 62 1019.6
20260903192903 87 341 5.0 8.0 0.00 0.00 0.00 60 1018.8
20260903192403 87 320 6.0 9.0 0.00 0.00 0.00 61 1018.8
20260903191903 87 341 6.0 9.0 0.00 0.00 0.00 62 1018.9
20260903191519 86 300 5.0 11.0 0.00 0.00 0.00 64 1019.8
20260903190903 87 321 7.0 10.0 0.00 0.00 0.00 63 1019.0
20260903190403 86 309 4.0 9.0 0.00 0.00 0.00 68 1019.1
20260903190022 85 309 5.0 9.0 0.00 0.00 0.00 66 1020.0
20260903185903 86 327 6.0 8.0 0.00 0.00 0.00 67 1019.3
20260903185403 86 330 3.0 6.0 0.00 0.00 0.00 67 1019.3
20260903184903 86 270 3.0 6.0 0.00 0.00 0.00 63 1019.3
20260903184506 85 300 4.0 10.0 0.00 0.00 0.00 65 1020.2
20260903183904 86 290 5.0 10.0 0.00 0.00 0.00 64 1019.5
20260903183403 86 315 3.0 5.0 0.00 0.00 0.00 64 1019.5
20260903183017 85 345 2.0 4.0 0.00 0.00 0.00 67 1020.2
20260903182903 86 325 3.0 5.0 0.00 0.00 0.00 65 1019.4
20260903182403 86 14 2.0 5.0 0.00 0.00 0.00 63 1019.4
20260903181903 86 1 3.0 7.0 0.00 0.00 0.00 64 1019.6
20260903181518 85 331 4.0 6.0 0.00 0.00 0.00 64 1020.4
20260903181404 86 325 4.0 6.0 0.00 0.00 0.00 64 1019.6
20260903180403 85 352 4.0 6.0 0.00 0.00 0.00 65 1019.4
20260903180040 85 360 2.0 9.0 0.00 0.00 0.00 64 1020.3
20260903175903 85 358 3.0 8.0 0.00 0.00 0.00 63 1019.5
20260903175403 86 328 6.0 9.0 0.00 0.00 0.00 62 1019.6
20260903174903 86 310 5.0 8.0 0.00 0.00 0.00 64 1019.7
20260903174524 85 293 3.0 9.0 0.00 0.00 0.00 65 1020.4
20260903174403 86 322 3.0 8.0 0.00 0.00 0.00 64 1019.8
20260903173903 86 332 6.0 9.0 0.00 0.00 0.00 64 1019.8
20260903173403 86 315 3.0 6.0 0.00 0.00 0.00 65 1019.8
20260903173024 86 338 3.0 8.0 0.00 0.00 0.00 64 1020.6
20260903172903 86 320 4.0 8.0 0.00 0.00 0.00 63 1019.9
20260903171903 86 310 6.0 9.0 0.00 0.00 0.00 63 1019.9
20260903171516 85 312 6.0 12.0 0.00 0.00 0.00 66 1020.6
20260903171403 85 307 5.0 10.0 0.00 0.00 0.00 65 1019.9
20260903170903 85 317 6.0 12.0 0.00 0.00 0.00 65 1019.9
20260903170404 86 244 5.0 8.0 0.00 0.00 0.00 63 1020.0
20260903170025 86 281 3.0 8.0 0.00 0.00 0.00 65 1020.8
20260903165903 86 317 5.0 8.0 0.00 0.00 0.00 61 1020.0
20260903165403 86 251 4.0 7.0 0.00 0.00 0.00 64 1020.1
20260903164903 86 313 3.0 10.0 0.00 0.00 0.00 65 1020.1
20260903164529 85 329 4.0 8.0 0.00 0.00 0.00 65 1021.0
20260903164403 86 296 3.0 6.0 0.00 0.00 0.00 63 1020.1
20260903163903 86 353 2.0 6.0 0.00 0.00 0.00 66 1020.3
20260903163403 85 219 5.0 10.0 0.00 0.00 0.00 66 1020.2
20260903163039 85 265 4.0 10.0 0.00 0.00 0.00 67 1021.0
20260903162904 85 301 6.0 10.0 0.00 0.00 0.00 65 1020.3
20260903162403 85 256 3.0 9.0 0.00 0.00 0.00 64 1020.3
20260903161526 84 333 3.0 9.0 0.00 0.00 0.00 68 1021.2
20260903161403 85 336 5.0 9.0 0.00 0.00 0.00 69 1020.5
20260903160903 84 272 5.0 8.0 0.00 0.00 0.00 67 1020.5
20260903160403 84 259 5.0 12.0 0.00 0.00 0.00 67 1020.5
20260903160019 84 338 2.0 8.0 0.00 0.00 0.00 68 1021.3
20260903155903 85 299 5.0 8.0 0.00 0.00 0.00 67 1020.6
20260903155403 85 317 2.0 9.0 0.00 0.00 0.00 66 1020.5
20260903154903 85 302 5.0 12.0 0.00 0.00 0.00 66 1020.6
20260903154527 84 244 1.0 8.0 0.00 0.00 0.00 68 1021.4
20260903154403 85 39 3.0 7.0 0.00 0.00 0.00 67 1020.6
20260903153903 84 293 5.0 8.0 0.00 0.00 0.00 67 1020.7
20260903153403 84 328 2.0 8.0 0.00 0.00 0.00 70 1020.6
20260903153031 84 328 4.0 9.0 0.00 0.00 0.00 69 1021.4
20260903152903 84 323 5.0 7.0 0.00 0.00 0.00 68 1020.5
20260903152404 84 317 3.0 9.0 0.00 0.00 0.00 68 1020.7
20260903151904 84 257 3.0 7.0 0.00 0.00 0.00 69 1020.7
20260903151529 83 241 1.0 5.0 0.00 0.00 0.00 73 1021.5
20260903150903 83 218 2.0 6.0 0.00 0.00 0.00 71 1020.7
20260903150403 83 247 1.0 2.0 0.00 0.00 0.00 72 1020.7
20260903150030 82 169 0.0 5.0 0.00 0.00 0.00 75 1021.4
20260903145903 83 161 2.0 5.0 0.00 0.00 0.00 73 1020.7
20260903144903 83 163 4.0 6.0 0.00 0.00 0.00 72 1020.8
20260903144526 82 143 0.0 6.0 0.00 0.00 0.00 77 1021.4
20260903144404 82 153 1.0 6.0 0.00 0.00 0.00 72 1020.6
20260903143404 81 155 2.0 6.0 0.00 0.00 0.00 77 1020.6
20260903143028 81 159 1.0 6.0 0.00 0.00 0.00 77 1021.3
20260903142903 81 173 2.0 5.0 0.00 0.00 0.00 78 1020.7
20260903142403 81 119 2.0 6.0 0.00 0.00 0.00 78 1020.7
20260903141903 80 151 3.0 6.0 0.00 0.00 0.00 78 1020.8
20260903141531 79 79 3.0 5.0 0.00 0.00 0.00 80 1021.3
20260903141404 80 117 5.0 5.0 0.00 0.00 0.00 79 1020.8
20260903140903 79 100 2.0 5.0 0.00 0.00 0.00 81 1020.7
20260903140034 78 54 1.0 4.0 0.00 0.00 0.00 83 1021.4
20260903135905 78 64 3.0 8.0 0.00 0.00 0.00 82 1020.8
20260903134532 77 133 1.0 4.0 0.00 0.00 0.00 85 1021.5
20260903133025 76 148 1.0 3.0 0.00 0.00 0.00 86 1021.5
20260903131529 74 130 1.0 3.0 0.00 0.00 0.00 89 1021.6
20260903130041 72 53 1.0 3.0 0.00 0.00 0.00 91 1021.7
20260903124532 71 333 0.0 0.0 0.00 0.00 0.00 94 1021.8
20260903123004 69 333 0.0 0.0 0.00 0.00 0.00 98 1021.9
20260903121502 67 333 0.0 0.0 0.00 0.00 0.00 98 1021.9
20260903120010 66 333 0.0 0.0 0.00 0.00 0.00 98 1022.0
20260903114514 65 333 0.0 0.0 0.00 0.00 0.00 99 1021.9
20260903113032 64 333 0.0 0.0 0.00 0.00 0.00 98 1021.9
20260903111505 64 333 0.0 0.0 0.00 0.00 0.00 98 1021.8
20260903110007 64 333 0.0 0.0 0.00 0.00 0.00 98 1021.5
20260903104512 64 333 0.0 0.0 0.00 0.00 0.00 98 1021.4
20260903103018 64 333 0.0 0.0 0.00 0.00 0.00 98 1021.3
20260903101523 64 333 0.0 0.0 0.00 0.00 0.00 98 1021.1
20260903100032 64 333 0.0 2.0 0.00 0.00 0.00 98 1021.1
20260903094523 64 333 0.0 1.0 0.00 0.00 0.00 98 1021.1
20260903093015 64 333 0.0 2.0 0.00 0.00 0.00 98 1021.1
20260903091523 64 333 0.0 1.0 0.00 0.00 0.00 97 1021.0
20260903090026 64 333 1.0 2.0 0.00 0.00 0.00 98 1020.9
20260903084532 65 333 0.0 2.0 0.00 0.00 0.00 97 1020.8
20260903083010 65 333 0.0 2.0 0.00 0.00 0.00 97 1020.7
20260903081525 65 333 0.0 2.0 0.00 0.00 0.00 97 1020.8
20260903080027 65 333 0.0 2.0 0.00 0.00 0.00 97 1020.9
20260903074530 65 333 1.0 3.0 0.00 0.00 0.00 97 1020.9
20260903073030 65 311 1.0 4.0 0.00 0.00 0.00 97 1020.8
20260903071515 66 300 1.0 4.0 0.00 0.00 0.00 97 1020.8
20260903070033 66 300 2.0 4.0 0.00 0.00 0.00 97 1020.9
20260903064527 66 304 2.0 3.0 0.00 0.00 0.00 97 1020.9
20260903063028 66 281 1.0 4.0 0.00 0.00 0.00 97 1020.9
20260903061547 66 304 1.0 4.0 0.00 0.00 0.00 97 1021.1
20260903060019 66 304 0.0 2.0 0.00 0.00 0.00 97 1021.2
20260903054541 66 304 1.0 3.0 0.00 0.00 0.00 97 1021.1
20260903053036 66 308 1.0 3.0 0.00 0.00 0.00 97 1021.0
20260903051529 66 321 1.0 2.0 0.00 0.00 0.00 96 1020.9
20260903050033 66 314 1.0 4.0 0.00 0.00 0.00 96 1021.0
20260903044523 66 319 2.0 4.0 0.00 0.00 0.00 97 1021.0
20260903043027 66 302 1.0 3.0 0.00 0.00 0.00 96 1021.2
20260903041531 67 248 0.0 0.0 0.00 0.00 0.00 95 1021.2
20260903040012 67 248 0.0 0.0 0.00 0.00 0.00 95 1021.2
20260903034503 67 244 2.0 6.0 0.00 0.00 0.00 96 1021.2
20260903033002 68 309 1.0 3.0 0.00 0.00 0.00 96 1021.3
20260903031505 68 258 2.0 4.0 0.00 0.00 0.00 96 1021.1
20260903030019 69 305 1.0 3.0 0.00 0.00 0.00 95 1021.0
20260903024527 69 305 1.0 4.0 0.00 0.00 0.00 95 1021.2
20260903023020 69 269 0.0 4.0 0.00 0.00 0.00 95 1021.4